Zurück zum Katalog

FENGYUN 1C DEB

LostSSO
NORAD 31413·DEBRIS·🇨🇳 China

Gestartet May 10, 1999 von Taiyuan Satellite Launch Center

Loading…

Nächste Überflüge (nächste 24 Stunden)

TLE

VeraltetSource: Space-Track

Epoche: Nov 27, 2015, 22:48 UTC

1 31413U 99025BSZ 15331.95041123 +.00000790 +00000-0 +34005-3 0  9996
2 31413 098.7417 032.9781 0073158 303.2519 059.0305 14.26056564446361

Verfolge FENGYUN 1C DEB in Echtzeit mit AllMySat

Download on the App Store